Location: Foxtrotter Observatory
(29.3381°N, 82.2844°W)
Time: 03:43:44
(UTC-04:00)

Envisat - Visible Passes

Search period start: 25 June 2018 00:00
Search period end: 05 July 2018 00:00
Orbit: 764 x 766 km, 98.2° (Epoch: 24 June)

Date Brightness Start Highest point End Pass type
(mag) Time Alt. Az. Time Alt. Az. Time Alt. Az.
25 Jun 4.6 21:32:25 10° SSW 21:36:56 33° W 21:41:29 10° NW visible
26 Jun 3.1 20:55:05 10° S 21:00:10 83° WSW 21:05:15 10° NNW visible
27 Jun 5.5 21:59:22 10° SW 22:02:38 17° W 22:05:55 10° NW visible
28 Jun 4.2 21:20:58 10° S 21:25:45 43° W 21:30:34 10° NNW visible
30 Jun 5.2 21:47:30 10° SSW 21:51:24 22° W 21:55:21 10° NW visible
01 Jul 3.7 21:09:36 10° S 21:14:34 57° W 21:19:34 10° NNW visible
02 Jul 5.8 22:15:36 10° WSW 22:17:09 11° W 22:18:42 10° WNW visible
03 Jul 4.8 21:35:50 10° SSW 21:40:12 29° W 21:44:36 10° NW visible
04 Jul 3.2 20:58:21 10° S 21:03:24 75° WSW 21:08:30 10° NNW visible
